SCP
-0 -0 -0 0 0 -0 0 -0 0 0 0 0 0 0 0 0 0 -0 -0 -0 -0 -0 -0 -0 -0 -0 -0 -0 -0 -0 0 0 0 0 0 0 0 0 -0 -0 -0 0 -0 -0 0 0 0 0 0
0 -0 -0 0 -0 0 0 0 -0 0 -0 -0 -0 -0 -0 0 0 -0 -0 -0 -0 -0 -0 -0 -0 -0 -0 -0 -0 -0 -0 0 0 0 0 0 0 0 -0 -0 -0 -0 0 0 0 0 0 0 0
0 -0 0 -0 -0 0 0 0 -0 -0 -0 -0 0 -0 0 0 -0 -0 -0 -0 -0 -0 -0 -0 -0 -0 -0 -0 -0 -0 -0 -0 -0 0 0 0 0 0 -0 -0 -0 -0 0 0 0 0 0 0 0
-0 0 0 0 0 0 0 0 -0 0 0 -0 -0 0 -0 0 0 -0 -0 -0 -0 0 -0 -0 -0 -0 -0 -0 -0 -0 -0 -0 -0 0 0 0 0 -0 -0 -0 -0 0 0 0 0 0 0 0 0
0 0 0 0 0 0 0 0 -0 0 -0 0 -0 -0 0 0 -1 -0 -0 -0 -0 0 0 0 -0 -0 -0 -0 -0 -0 -0 -0 -0 0 -0 -0 -0 -0 -0 0 0 0 0 0 0 0 0 0 0
0 0 0 0 -0 0 0 0 0 -0 0 -0 -0 -0 0 0 -0 -0 -0 -0 -0 0 0 0 -0 -0 -0 -0 -0 -0 -0 -0 -0 -0 -0 -0 -0 0 0 0 0 0 0 0 0 0 0 0 0
0 0 0 0 -0 0 0 0 0 -0 0 -0 0 -0 0 0 0 0 -0 -0 -0 0 0 0 0 -0 -0 -0 -0 -0 -0 -0 -0 -0 -0 -0 -0 0 0 0 0 0 0 0 0 0 0 0 0
0 0 0 0 0 0 0 0 0 -0 -0 -0 -0 0 -0 -0 0 0 -0 -0 -0 0 0 0 0 0 0 -0 -0 -0 -0 -0 -0 -0 -0 -0 -0 -0 0 0 0 0 0 0 0 -0 0 0 0
0 0 0 0 -0 0 -0 0 -0 -0 -0 -0 -0 0 -0 0 0 0 -0 -0 -0 0 0 0 0 0 -0 -0 -0 -0 -0 -0 -0 -0 -0 -0 -0 0 0 -0 -0 -0 -0 -0 0 -0 -0 0 -0
0 0 0 0 -0 0 0 -0 0 0 0 0 0 -0 -0 -0 0 -0 -0 -0 -0 -0 -0 -0 -0 -0 -0 -0 -0 -0 0 0 0 -0 -0 -0 0 0 -0 -0 -0 -0 -0 -0 -0 -0 -0 0 0
0 0 0 0 0 0 0 0 0 0 0 0 0 0 -0 0 -0 -0 0 -0 -0 -0 -0 -0 -0 -0 -0 -0 -0 -0 0 0 0 -0 -0 -0 -0 0 0 0 0 0 -0 0 0 0 0 0 0
0 0 0 0 0 -0 0 -0 0 0 0 0 0 0 0 -0 -0 0 0 -0 -0 -0 -0 -0 -0 -0 -0 -0 -0 -0 -0 -0 -0 0 -0 -0 -0 0 -0 0 -0 0 0 0 0 0 0 0 0
-0 0 0 0 0 0 0 0 0 0 0 0 -0 0 0 -0 0 -0 0 0 -0 -0 -0 -0 -0 -0 -0 -0 -0 -0 -0 -0 -0 -0 -0 -0 0 -0 -0 -0 0 0 0 0 0 0 0 0 0
0 -0 0 -0 0 0 -0 0 0 0 0 0 -0 0 0 -0 0 -0 0 0 -0 -0 -0 -0 -0 -0 -0 -0 -0 -0 -0 -0 -0 -0 -0 -0 0 -0 -0 0 0 0 0 0 0 0 0 0 0
0 0 0 0 -0 0 -0 0 0 0 -0 -0 -0 -0 0 0 0 0 0 0 0 0 -0 -0 -0 -0 -0 -0 0 0 -0 -0 0 0 -0 -0 0 0 0 0 0 0 0 0 0 0 0 0 0
0 0 -0 -0 0 0 0 -0 -0 0 -0 -0 -0 -0 -0 -0 0 -0 0 0 0 0 0 -0 -0 -0 0 0 0 0 0 0 0 0 0 -0 0 0 0 0 0 0 0 1 1 1 0 1 0
-0 -0 0 0 0 -0 0 0 0 0 0 0 -0 0 0 -0 0 0 0 -0 0 0 0 -0 -0 -0 0 1 1 0 0 0 0 0 0 0 0 0 0 0 0 0 1 1 1 1 1 1 0
0 -0 0 -0 -0 -0 0 -0 -0 -0 0 0 0 0 0 0 0 0 0 0 0 0 0 0 0 0 0 1 1 1 0 0 0 0 0 0 0 0 0 0 0 1 1 1 1 1 1 1 1
0 0 0 0 0 0 0 0 0 0 0 0 0 0 0 0 0 0 0 0 0 1 1 1 1 0 1 2 1 1 0 0 0 0 0 0 0 0 1 0 0 1 1 1 1 1 1 1 0
0 0 0 0 0 0 0 0 0 0 0 0 0 0 -0 0 0 0 0 1 1 2 2 1 2 2 2 2 2 1 0 0 0 0 1 1 1 1 1 1 1 1 1 1 1 1 0 0 0
0 0 0 0 0 0 0 0 0 0 0 0 0 0 0 0 0 0 0 1 1 2 4 4 3 7 4 3 3 2 1 1 1 0 1 1 1 1 1 1 1 1 1 1 1 0 0 0 0
0 -0 0 0 0 0 0 0 0 -0 -0 -0 0 0 0 0 0 0 0 0 0 0 1 1 3 5 7 5 4 2 2 1 1 1 1 2 2 3 3 3 2 2 1 0 0 0 0 0 0
0 0 0 0 0 0 0 0 0 0 0 0 0 0 0 0 0 0 0 0 0 0 0 0 2 4 4 3 6 4 2 2 3 2 4 4 6 5 4 3 3 1 0 0 0 0 0 0 0
0 0 0 0 0 0 0 0 0 0 0 0 0 0 0 0 0 0 0 0 0 0 0 0 0 2 1 0 0 1 1 1 5 4 7 7 7 5 4 3 2 0 0 0 0 0 0 0 0
0 0 0 0 0 0 0 0 0 0 0 0 0 0 0 0 0 0 0 0 0 -0 0 0 0 0 0 0 0 0 0 -0 0 5 10 7 5 4 3 2 1 0 0 0 0 0 0 0 0
0 0 0 0 0 0 0 0 0 0 0 0 0 0 0 0 0 0 0 0 0 0 -0 0 0 0 0 0 0 0 0 -0 -0 2 7 6 5 3 2 1 0 0 0 0 0 0 0 0 0
0 0 0 0 0 0 0 0 0 0 0 0 0 0 0 0 0 0 0 -0 -0 0 0 0 0 0 0 0 -0 -0 0 0 -0 -0 3 4 4 2 0 0 0 0 0 0 0 0 0 0 0
0 0 0 0 0 0 0 0 0 0 0 0 0 0 0 0 0 0 -0 -0 -0 -0 -0 0 0 0 0 0 0 0 0 -1 0 0 2 3 2 0 0 0 0 0 0 0 0 0 0 0 0
0 0 0 0 0 0 0 0 0 0 -0 -0 -0 -0 0 -0 -0 -0 -0 -0 -0 -0 -0 -0 0 0 0 0 0 0 0 0 1 1 2 2 0 0 0 0 0 0 0 0 0 0 0 0 0
0 0 0 0 0 0 0 0 0 -0 -0 -0 -0 -0 -0 -0 -0 -0 -0 -0 -0 -0 -0 -0 -0 0 0 0 0 0 0 0 2 1 1 0 0 0 0 0 0 0 0 0 0 0 0 0 0
Wind_Speed_500mb
33 29 13 7 10 11 12 19 28 37 30 40 54 31 24 28 10 10 55 39 33 42 42 39 38 37 35 35 35 35 35 35 35 36 37 37 35 34 34 33 33 32 32 32 31 31 31 32 32
38 26 10 9 11 10 5 15 39 39 56 68 53 44 31 14 41 56 52 45 36 40 42 41 40 39 39 37 35 36 37 36 37 36 36 36 34 32 32 31 30 29 28 27 26 25 25 25 26
38 28 8 9 9 12 16 22 40 73 60 51 7 32 16 17 55 32 47 46 37 43 43 42 41 41 39 38 37 37 37 37 37 36 35 34 33 31 29 28 27 26 24 21 19 19 19 19 20
21 12 15 7 13 10 26 36 34 18 28 31 42 14 33 38 36 50 49 35 46 46 44 41 41 40 39 39 38 38 38 37 36 35 34 33 31 29 27 25 24 24 22 20 18 19 19 18 18
39 25 10 9 18 13 21 60 14 15 6 16 36 17 14 42 42 52 39 28 52 48 43 41 40 39 39 39 38 37 37 36 35 33 32 31 29 26 24 22 22 20 18 16 14 14 15 16 19
26 20 10 13 4 18 28 30 29 5 17 10 41 31 15 49 53 46 28 31 38 44 43 41 39 38 37 37 38 37 36 36 34 33 30 28 25 23 20 18 17 16 15 13 12 12 14 16 17
14 5 15 25 31 19 22 58 22 17 31 14 38 13 30 49 55 39 46 37 30 32 41 41 40 39 38 37 37 37 35 34 33 31 29 25 22 19 15 12 10 7 8 8 8 11 13 13 13
43 4 22 28 20 1 31 58 52 68 28 26 50 18 33 62 56 43 55 46 32 23 38 40 40 39 39 38 36 35 34 33 31 30 27 24 20 16 11 7 3 2 4 7 11 14 12 11 11
46 7 21 24 18 17 62 22 48 33 9 5 14 59 70 68 59 57 58 46 30 22 38 40 39 38 38 37 35 34 33 31 30 28 26 23 19 14 7 4 3 8 11 12 11 17 15 15 18
16 8 21 19 17 17 19 45 54 12 29 35 31 57 68 68 63 64 63 52 37 27 28 37 39 40 39 37 34 32 31 30 29 28 25 21 19 12 8 4 5 11 14 12 9 12 15 17 16
37 23 29 45 48 42 11 14 25 37 27 55 27 30 52 66 61 62 64 56 46 34 31 26 32 36 38 36 34 33 31 30 30 29 27 25 19 13 4 7 4 7 12 11 8 17 20 17 21
14 46 49 57 56 32 6 31 7 5 25 67 63 50 34 45 60 66 60 63 54 49 37 31 26 24 30 24 25 28 31 31 31 30 30 30 25 12 13 16 16 13 8 14 15 15 21 16 19
12 26 59 66 58 36 8 11 12 34 47 71 71 56 63 60 58 62 56 59 60 57 48 49 42 35 33 31 24 23 33 27 23 27 28 30 32 28 24 25 21 17 9 9 11 16 12 18 20
46 36 49 59 49 30 8 12 27 37 56 73 62 73 66 61 62 59 56 60 64 60 57 60 52 45 43 46 41 31 28 24 20 21 19 20 30 34 28 27 27 27 28 24 20 20 23 24 25
41 16 22 19 30 13 39 13 11 30 53 66 74 77 76 71 68 64 59 59 60 63 64 61 58 56 57 53 50 41 32 33 32 32 31 28 31 34 34 34 28 17 10 11 16 22 23 23 30
15 12 10 17 19 18 11 14 16 26 66 66 76 85 82 82 83 64 64 59 60 63 70 65 62 64 59 69 58 55 53 55 52 47 42 39 34 38 36 28 28 22 23 19 25 26 32 30 33
12 13 16 20 30 16 17 15 15 50 45 24 66 76 89 82 85 71 75 71 70 71 70 72 71 70 67 63 78 67 67 63 62 54 58 50 37 37 41 32 30 28 26 33 34 34 33 31 34
17 10 17 16 21 31 17 20 21 57 50 28 25 41 75 83 87 85 84 82 82 82 82 78 77 71 69 61 70 75 63 60 54 55 49 46 41 34 39 37 36 36 37 37 36 35 33 30 28
22 10 13 14 19 14 6 4 11 14 12 26 35 21 22 34 71 80 87 88 85 85 84 87 85 80 75 70 68 76 79 73 66 62 57 53 50 43 37 40 38 40 39 40 34 32 27 22 16
9 12 18 17 18 9 15 8 11 12 15 30 41 42 35 30 10 50 90 95 94 93 91 94 96 90 86 82 74 75 74 76 72 66 65 64 59 53 45 42 37 33 37 35 27 24 19 19 14
9 6 16 17 17 14 12 16 14 18 27 35 78 81 90 84 93 88 56 6 57 91 96 96 99 101 95 92 83 75 73 71 70 67 73 73 68 62 53 46 44 40 39 31 27 22 16 23 11
12 18 11 7 8 2 10 6 13 34 43 51 74 81 76 84 85 96 97 93 48 21 40 41 69 102 105 103 98 91 86 85 86 83 76 79 73 69 56 53 54 48 43 37 29 23 19 24 22
3 14 14 10 11 12 19 11 9 36 43 39 59 69 78 80 83 87 88 88 95 88 39 28 33 49 55 64 103 99 92 88 82 80 76 81 81 76 65 62 58 57 47 41 32 26 26 29 32
15 14 15 11 2 6 14 12 25 19 27 35 53 69 76 80 83 84 83 87 84 98 89 68 22 37 68 62 43 35 34 46 75 71 81 83 88 85 72 68 66 62 55 46 34 30 28 27 32
22 17 5 7 0 8 21 31 14 26 29 38 46 65 75 79 83 86 83 89 84 88 95 88 62 26 29 86 86 62 47 96 85 75 80 90 89 83 78 76 67 65 57 51 41 36 31 28 31
10 1 7 5 3 6 22 13 15 35 67 70 72 73 82 88 98 99 85 85 81 82 83 87 83 44 39 16 59 106 77 99 105 83 83 92 91 85 76 77 74 67 63 53 43 36 31 31 29
11 9 8 2 9 8 13 31 41 40 49 67 70 81 89 93 91 92 89 88 82 79 79 77 82 80 63 44 39 52 47 99 140 95 87 85 91 84 83 75 73 63 57 50 43 36 33 32 32
13 8 11 8 1 4 26 18 17 42 47 46 65 79 84 87 89 90 93 89 71 81 65 60 61 66 75 70 54 41 47 77 69 57 76 74 74 82 88 73 67 58 53 46 41 36 35 38 37
12 10 10 0 2 1 7 7 23 28 32 35 60 72 85 94 98 98 95 91 84 82 80 71 64 64 62 71 72 62 55 53 48 57 66 72 77 90 78 64 62 61 59 54 50 40 41 40 37
22 14 11 8 10 5 7 6 23 36 47 51 53 64 73 82 98 102 102 105 105 92 90 81 90 79 77 76 82 77 66 54 46 50 68 76 86 82 74 67 64 63 59 59 54 47 44 40 35
Wind_Direction_500mb
330 336 316 325 55 48 352 328 324 289 319 33 82 80 81 42 118 170 151 166 159 150 144 143 144 141 135 131 128 124 120 118 116 115 115 115 115 113 110 107 105 104 102 99 97 95 95 93 89
326 331 287 285 100 93 321 313 295 277 283 306 89 86 61 72 108 136 140 153 148 150 144 141 141 139 137 134 130 126 126 126 124 121 121 121 120 118 114 110 107 107 107 103 98 96 95 94 93
314 313 236 167 133 160 173 184 248 272 279 308 81 57 67 106 127 140 161 149 155 152 145 144 142 139 137 135 134 132 133 132 129 129 128 127 124 120 116 114 111 109 108 105 98 90 85 85 87
321 286 253 179 197 229 151 192 180 291 312 354 104 59 102 133 137 150 149 149 159 151 148 145 142 141 140 139 139 139 138 137 136 136 136 133 130 125 123 120 115 112 107 103 94 86 78 76 80
319 262 248 284 276 143 154 187 220 171 143 76 99 114 80 129 143 147 145 167 162 150 149 146 144 144 144 143 142 143 144 145 143 145 142 140 137 134 129 125 117 112 108 102 96 86 79 72 66
293 296 328 297 343 140 152 160 172 76 353 131 105 115 98 139 145 143 148 163 145 151 151 151 149 149 148 147 148 150 152 151 152 153 150 149 147 144 137 132 125 115 103 92 78 69 62 57 55
269 315 278 284 292 119 186 175 168 185 134 215 135 117 137 152 148 140 158 162 155 159 158 157 156 154 154 154 155 155 158 158 159 160 159 158 157 151 147 141 124 108 91 78 59 45 40 40 35
296 350 296 283 303 107 143 159 177 151 205 150 156 156 158 155 157 151 171 169 174 176 170 165 163 162 162 161 161 161 163 164 167 168 168 168 166 160 160 143 115 51 16 19 19 15 10 358 359
282 326 274 278 290 341 163 132 171 183 5 299 295 153 154 156 158 158 168 172 181 175 177 173 171 170 169 167 167 167 169 171 175 176 177 177 170 149 165 157 33 354 351 4 19 38 44 13 20
258 258 263 270 292 322 65 113 160 155 120 29 79 138 150 156 163 168 167 171 184 186 179 185 179 179 176 176 175 175 176 178 180 184 185 180 180 179 123 181 34 55 25 24 45 26 0 355 6
253 251 274 281 287 303 54 74 155 133 122 113 97 122 157 164 169 175 177 186 194 196 198 183 184 188 184 182 182 185 184 185 186 191 190 174 175 179 198 358 83 4 32 25 17 10 352 355 348
237 262 267 277 286 305 29 141 166 70 122 135 141 143 170 188 184 184 184 185 192 194 201 191 196 195 194 163 192 199 198 195 199 200 194 191 193 208 214 263 285 318 272 320 317 338 338 329 340
244 253 262 270 278 283 216 290 215 146 152 160 197 212 186 188 207 194 189 191 192 195 198 198 193 196 215 195 210 218 197 190 200 203 198 194 193 185 202 230 245 251 264 290 322 318 327 309 299
268 262 256 264 277 290 284 213 288 177 159 171 182 190 193 191 202 204 194 194 195 193 195 199 197 193 204 213 215 225 197 200 216 216 218 217 205 197 204 217 221 232 238 245 242 253 294 308 302
295 292 299 274 261 258 279 286 257 202 182 179 191 183 178 188 198 204 195 197 197 194 196 202 203 196 206 202 209 219 207 212 217 225 227 228 217 205 214 222 215 212 215 273 256 262 286 285 291
306 325 310 286 298 258 246 256 265 236 172 187 194 186 184 189 197 191 195 200 194 196 199 205 210 210 213 212 207 204 199 208 206 216 223 233 224 223 225 218 217 214 212 233 252 268 276 280 288
293 234 249 264 245 228 201 235 261 277 280 201 198 196 189 194 197 193 194 199 201 201 202 208 214 221 222 221 213 216 209 209 214 212 224 229 229 222 223 216 211 208 215 240 252 257 267 274 288
250 233 266 243 258 234 197 213 230 243 260 259 272 188 192 193 197 198 199 202 205 206 208 211 218 223 225 223 217 217 214 215 218 222 224 227 227 219 216 214 214 218 226 238 247 250 256 271 277
250 294 321 309 321 38 108 124 232 259 340 340 333 239 198 222 211 206 204 204 208 209 211 211 213 222 220 218 220 214 219 215 217 215 223 233 236 228 224 216 215 224 228 239 246 247 253 258 261
3 356 317 310 316 343 312 349 352 354 325 318 318 317 328 243 21 225 209 206 208 214 217 215 214 218 221 220 223 223 220 219 220 218 217 228 232 235 234 218 216 220 226 230 232 235 250 238 234
323 257 269 263 293 331 1 350 333 304 301 318 39 46 42 38 36 34 44 312 223 217 218 220 218 217 221 225 221 222 223 221 223 222 219 225 230 231 239 227 224 222 222 224 225 231 231 200 172
272 257 287 307 48 272 61 290 351 40 53 37 35 34 36 33 33 39 38 38 32 305 263 252 229 220 221 222 222 219 221 220 225 226 221 221 228 230 230 229 224 224 222 225 221 229 216 195 170
7 10 358 344 350 36 309 77 289 40 46 37 32 26 27 27 27 30 32 31 27 27 5 274 251 243 235 242 226 224 219 226 226 226 228 222 223 225 225 231 227 223 222 218 217 221 198 194 200
313 340 328 325 60 299 247 137 22 36 40 37 32 27 23 21 19 21 25 28 25 20 20 23 299 270 238 234 261 220 241 272 228 222 227 223 220 221 229 230 224 222 221 217 214 210 205 198 206
25 25 283 319 314 211 89 57 89 61 51 47 31 21 19 18 14 10 20 21 22 19 17 18 16 330 254 246 292 266 273 301 263 235 229 224 222 220 227 228 218 217 214 214 213 209 209 203 204
348 316 111 301 341 304 73 126 87 47 35 30 22 19 14 12 8 7 17 22 21 18 13 10 11 25 345 268 232 255 285 282 282 251 237 231 229 224 236 234 216 218 210 208 207 202 204 200 195
330 55 251 342 297 36 99 104 60 25 25 18 17 14 6 3 3 360 4 12 14 22 18 5 0 357 1 337 282 252 292 299 247 249 241 236 239 234 239 239 224 211 207 204 201 203 204 196 193
87 11 19 355 260 251 91 59 18 12 12 7 8 8 3 2 1 357 354 357 2 2 358 360 4 360 352 349 348 310 278 275 284 262 243 238 237 241 234 219 215 205 202 196 197 198 197 194 191
20 25 2 345 79 110 111 76 36 26 13 6 15 7 358 353 351 349 345 344 348 352 350 337 334 335 332 330 330 328 313 296 274 259 250 240 235 226 224 217 213 210 196 192 192 201 201 198 196
81 74 50 86 345 16 105 129 61 32 14 29 16 6 359 355 351 347 344 338 338 342 341 341 323 321 319 315 315 315 315 310 306 280 248 236 221 214 215 210 207 203 195 192 195 194 199 200 195
Wind_Speed_850mb
33 29 13 7 10 11 12 19 28 37 30 40 54 31 24 28 10 10 55 39 33 42 42 39 38 37 35 35 35 35 35 35 35 36 37 37 35 34 34 33 33 32 32 32 31 31 31 32 32
38 26 10 9 11 10 5 15 39 39 56 68 53 44 31 14 41 56 52 45 36 40 42 41 40 39 39 37 35 36 37 36 37 36 36 36 34 32 32 31 30 29 28 27 26 25 25 25 26
38 28 8 9 9 12 16 22 40 73 60 51 7 32 16 17 55 32 47 46 37 43 43 42 41 41 39 38 37 37 37 37 37 36 35 34 33 31 29 28 27 26 24 21 19 19 19 19 20
21 12 15 7 13 10 26 36 34 18 28 31 42 14 33 38 36 50 49 35 46 46 44 41 41 40 39 39 38 38 38 37 36 35 34 33 31 29 27 25 24 24 22 20 18 19 19 18 18
39 25 10 9 18 13 21 60 14 15 6 16 36 17 14 42 42 52 39 28 52 48 43 41 40 39 39 39 38 37 37 36 35 33 32 31 29 26 24 22 22 20 18 16 14 14 15 16 19
26 20 10 13 4 18 28 30 29 5 17 10 41 31 15 49 53 46 28 31 38 44 43 41 39 38 37 37 38 37 36 36 34 33 30 28 25 23 20 18 17 16 15 13 12 12 14 16 17
14 5 15 25 31 19 22 58 22 17 31 14 38 13 30 49 55 39 46 37 30 32 41 41 40 39 38 37 37 37 35 34 33 31 29 25 22 19 15 12 10 7 8 8 8 11 13 13 13
43 4 22 28 20 1 31 58 52 68 28 26 50 18 33 62 56 43 55 46 32 23 38 40 40 39 39 38 36 35 34 33 31 30 27 24 20 16 11 7 3 2 4 7 11 14 12 11 11
46 7 21 24 18 17 62 22 48 33 9 5 14 59 70 68 59 57 58 46 30 22 38 40 39 38 38 37 35 34 33 31 30 28 26 23 19 14 7 4 3 8 11 12 11 17 15 15 18
16 8 21 19 17 17 19 45 54 12 29 35 31 57 68 68 63 64 63 52 37 27 28 37 39 40 39 37 34 32 31 30 29 28 25 21 19 12 8 4 5 11 14 12 9 12 15 17 16
37 23 29 45 48 42 11 14 25 37 27 55 27 30 52 66 61 62 64 56 46 34 31 26 32 36 38 36 34 33 31 30 30 29 27 25 19 13 4 7 4 7 12 11 8 17 20 17 21
14 46 49 57 56 32 6 31 7 5 25 67 63 50 34 45 60 66 60 63 54 49 37 31 26 24 30 24 25 28 31 31 31 30 30 30 25 12 13 16 16 13 8 14 15 15 21 16 19
12 26 59 66 58 36 8 11 12 34 47 71 71 56 63 60 58 62 56 59 60 57 48 49 42 35 33 31 24 23 33 27 23 27 28 30 32 28 24 25 21 17 9 9 11 16 12 18 20
46 36 49 59 49 30 8 12 27 37 56 73 62 73 66 61 62 59 56 60 64 60 57 60 52 45 43 46 41 31 28 24 20 21 19 20 30 34 28 27 27 27 28 24 20 20 23 24 25
41 16 22 19 30 13 39 13 11 30 53 66 74 77 76 71 68 64 59 59 60 63 64 61 58 56 57 53 50 41 32 33 32 32 31 28 31 34 34 34 28 17 10 11 16 22 23 23 30
15 12 10 17 19 18 11 14 16 26 66 66 76 85 82 82 83 64 64 59 60 63 70 65 62 64 59 69 58 55 53 55 52 47 42 39 34 38 36 28 28 22 23 19 25 26 32 30 33
12 13 16 20 30 16 17 15 15 50 45 24 66 76 89 82 85 71 75 71 70 71 70 72 71 70 67 63 78 67 67 63 62 54 58 50 37 37 41 32 30 28 26 33 34 34 33 31 34
17 10 17 16 21 31 17 20 21 57 50 28 25 41 75 83 87 85 84 82 82 82 82 78 77 71 69 61 70 75 63 60 54 55 49 46 41 34 39 37 36 36 37 37 36 35 33 30 28
22 10 13 14 19 14 6 4 11 14 12 26 35 21 22 34 71 80 87 88 85 85 84 87 85 80 75 70 68 76 79 73 66 62 57 53 50 43 37 40 38 40 39 40 34 32 27 22 16
9 12 18 17 18 9 15 8 11 12 15 30 41 42 35 30 10 50 90 95 94 93 91 94 96 90 86 82 74 75 74 76 72 66 65 64 59 53 45 42 37 33 37 35 27 24 19 19 14
9 6 16 17 17 14 12 16 14 18 27 35 78 81 90 84 93 88 56 6 57 91 96 96 99 101 95 92 83 75 73 71 70 67 73 73 68 62 53 46 44 40 39 31 27 22 16 23 11
12 18 11 7 8 2 10 6 13 34 43 51 74 81 76 84 85 96 97 93 48 21 40 41 69 102 105 103 98 91 86 85 86 83 76 79 73 69 56 53 54 48 43 37 29 23 19 24 22
3 14 14 10 11 12 19 11 9 36 43 39 59 69 78 80 83 87 88 88 95 88 39 28 33 49 55 64 103 99 92 88 82 80 76 81 81 76 65 62 58 57 47 41 32 26 26 29 32
15 14 15 11 2 6 14 12 25 19 27 35 53 69 76 80 83 84 83 87 84 98 89 68 22 37 68 62 43 35 34 46 75 71 81 83 88 85 72 68 66 62 55 46 34 30 28 27 32
22 17 5 7 0 8 21 31 14 26 29 38 46 65 75 79 83 86 83 89 84 88 95 88 62 26 29 86 86 62 47 96 85 75 80 90 89 83 78 76 67 65 57 51 41 36 31 28 31
10 1 7 5 3 6 22 13 15 35 67 70 72 73 82 88 98 99 85 85 81 82 83 87 83 44 39 16 59 106 77 99 105 83 83 92 91 85 76 77 74 67 63 53 43 36 31 31 29
11 9 8 2 9 8 13 31 41 40 49 67 70 81 89 93 91 92 89 88 82 79 79 77 82 80 63 44 39 52 47 99 140 95 87 85 91 84 83 75 73 63 57 50 43 36 33 32 32
13 8 11 8 1 4 26 18 17 42 47 46 65 79 84 87 89 90 93 89 71 81 65 60 61 66 75 70 54 41 47 77 69 57 76 74 74 82 88 73 67 58 53 46 41 36 35 38 37
12 10 10 0 2 1 7 7 23 28 32 35 60 72 85 94 98 98 95 91 84 82 80 71 64 64 62 71 72 62 55 53 48 57 66 72 77 90 78 64 62 61 59 54 50 40 41 40 37
22 14 11 8 10 5 7 6 23 36 47 51 53 64 73 82 98 102 102 105 105 92 90 81 90 79 77 76 82 77 66 54 46 50 68 76 86 82 74 67 64 63 59 59 54 47 44 40 35
Wind_Direction_850mb
330 336 316 325 55 48 352 328 324 289 319 33 82 80 81 42 118 170 151 166 159 150 144 143 144 141 135 131 128 124 120 118 116 115 115 115 115 113 110 107 105 104 102 99 97 95 95 93 89
326 331 287 285 100 93 321 313 295 277 283 306 89 86 61 72 108 136 140 153 148 150 144 141 141 139 137 134 130 126 126 126 124 121 121 121 120 118 114 110 107 107 107 103 98 96 95 94 93
314 313 236 167 133 160 173 184 248 272 279 308 81 57 67 106 127 140 161 149 155 152 145 144 142 139 137 135 134 132 133 132 129 129 128 127 124 120 116 114 111 109 108 105 98 90 85 85 87
321 286 253 179 197 229 151 192 180 291 312 354 104 59 102 133 137 150 149 149 159 151 148 145 142 141 140 139 139 139 138 137 136 136 136 133 130 125 123 120 115 112 107 103 94 86 78 76 80
319 262 248 284 276 143 154 187 220 171 143 76 99 114 80 129 143 147 145 167 162 150 149 146 144 144 144 143 142 143 144 145 143 145 142 140 137 134 129 125 117 112 108 102 96 86 79 72 66
293 296 328 297 343 140 152 160 172 76 353 131 105 115 98 139 145 143 148 163 145 151 151 151 149 149 148 147 148 150 152 151 152 153 150 149 147 144 137 132 125 115 103 92 78 69 62 57 55
269 315 278 284 292 119 186 175 168 185 134 215 135 117 137 152 148 140 158 162 155 159 158 157 156 154 154 154 155 155 158 158 159 160 159 158 157 151 147 141 124 108 91 78 59 45 40 40 35
296 350 296 283 303 107 143 159 177 151 205 150 156 156 158 155 157 151 171 169 174 176 170 165 163 162 162 161 161 161 163 164 167 168 168 168 166 160 160 143 115 51 16 19 19 15 10 358 359
282 326 274 278 290 341 163 132 171 183 5 299 295 153 154 156 158 158 168 172 181 175 177 173 171 170 169 167 167 167 169 171 175 176 177 177 170 149 165 157 33 354 351 4 19 38 44 13 20
258 258 263 270 292 322 65 113 160 155 120 29 79 138 150 156 163 168 167 171 184 186 179 185 179 179 176 176 175 175 176 178 180 184 185 180 180 179 123 181 34 55 25 24 45 26 0 355 6
253 251 274 281 287 303 54 74 155 133 122 113 97 122 157 164 169 175 177 186 194 196 198 183 184 188 184 182 182 185 184 185 186 191 190 174 175 179 198 358 83 4 32 25 17 10 352 355 348
237 262 267 277 286 305 29 141 166 70 122 135 141 143 170 188 184 184 184 185 192 194 201 191 196 195 194 163 192 199 198 195 199 200 194 191 193 208 214 263 285 318 272 320 317 338 338 329 340
244 253 262 270 278 283 216 290 215 146 152 160 197 212 186 188 207 194 189 191 192 195 198 198 193 196 215 195 210 218 197 190 200 203 198 194 193 185 202 230 245 251 264 290 322 318 327 309 299
268 262 256 264 277 290 284 213 288 177 159 171 182 190 193 191 202 204 194 194 195 193 195 199 197 193 204 213 215 225 197 200 216 216 218 217 205 197 204 217 221 232 238 245 242 253 294 308 302
295 292 299 274 261 258 279 286 257 202 182 179 191 183 178 188 198 204 195 197 197 194 196 202 203 196 206 202 209 219 207 212 217 225 227 228 217 205 214 222 215 212 215 273 256 262 286 285 291
306 325 310 286 298 258 246 256 265 236 172 187 194 186 184 189 197 191 195 200 194 196 199 205 210 210 213 212 207 204 199 208 206 216 223 233 224 223 225 218 217 214 212 233 252 268 276 280 288
293 234 249 264 245 228 201 235 261 277 280 201 198 196 189 194 197 193 194 199 201 201 202 208 214 221 222 221 213 216 209 209 214 212 224 229 229 222 223 216 211 208 215 240 252 257 267 274 288
250 233 266 243 258 234 197 213 230 243 260 259 272 188 192 193 197 198 199 202 205 206 208 211 218 223 225 223 217 217 214 215 218 222 224 227 227 219 216 214 214 218 226 238 247 250 256 271 277
250 294 321 309 321 38 108 124 232 259 340 340 333 239 198 222 211 206 204 204 208 209 211 211 213 222 220 218 220 214 219 215 217 215 223 233 236 228 224 216 215 224 228 239 246 247 253 258 261
3 356 317 310 316 343 312 349 352 354 325 318 318 317 328 243 21 225 209 206 208 214 217 215 214 218 221 220 223 223 220 219 220 218 217 228 232 235 234 218 216 220 226 230 232 235 250 238 234
323 257 269 263 293 331 1 350 333 304 301 318 39 46 42 38 36 34 44 312 223 217 218 220 218 217 221 225 221 222 223 221 223 222 219 225 230 231 239 227 224 222 222 224 225 231 231 200 172
272 257 287 307 48 272 61 290 351 40 53 37 35 34 36 33 33 39 38 38 32 305 263 252 229 220 221 222 222 219 221 220 225 226 221 221 228 230 230 229 224 224 222 225 221 229 216 195 170
7 10 358 344 350 36 309 77 289 40 46 37 32 26 27 27 27 30 32 31 27 27 5 274 251 243 235 242 226 224 219 226 226 226 228 222 223 225 225 231 227 223 222 218 217 221 198 194 200
313 340 328 325 60 299 247 137 22 36 40 37 32 27 23 21 19 21 25 28 25 20 20 23 299 270 238 234 261 220 241 272 228 222 227 223 220 221 229 230 224 222 221 217 214 210 205 198 206
25 25 283 319 314 211 89 57 89 61 51 47 31 21 19 18 14 10 20 21 22 19 17 18 16 330 254 246 292 266 273 301 263 235 229 224 222 220 227 228 218 217 214 214 213 209 209 203 204
348 316 111 301 341 304 73 126 87 47 35 30 22 19 14 12 8 7 17 22 21 18 13 10 11 25 345 268 232 255 285 282 282 251 237 231 229 224 236 234 216 218 210 208 207 202 204 200 195
330 55 251 342 297 36 99 104 60 25 25 18 17 14 6 3 3 360 4 12 14 22 18 5 0 357 1 337 282 252 292 299 247 249 241 236 239 234 239 239 224 211 207 204 201 203 204 196 193
87 11 19 355 260 251 91 59 18 12 12 7 8 8 3 2 1 357 354 357 2 2 358 360 4 360 352 349 348 310 278 275 284 262 243 238 237 241 234 219 215 205 202 196 197 198 197 194 191
20 25 2 345 79 110 111 76 36 26 13 6 15 7 358 353 351 349 345 344 348 352 350 337 334 335 332 330 330 328 313 296 274 259 250 240 235 226 224 217 213 210 196 192 192 201 201 198 196
81 74 50 86 345 16 105 129 61 32 14 29 16 6 359 355 351 347 344 338 338 342 341 341 323 321 319 315 315 315 315 310 306 280 248 236 221 214 215 210 207 203 195 192 195 194 199 200 195